Home   Weather   Reykjavik   Past weeks

Flag for Iceland Past Weather in Reykjavik, Iceland — Yesterday and Last 2 Weeks

45 °F

Drizzle. Mostly cloudy.

Feels Like: 38 °F
Forecast: N/A
Wind: 13 mph from Southeast

Location: Reykjavik Airport

Current Time: Oct 25, 2016 at 3:31:20 PM

Latest Report: Oct 25, 2016 at 3:00 PM

Visibility: 6 mi

Pressure: 28.94 "Hg

Humidity: 87%

Dew Point: 41 °F

Location of ReykjavikLocation

Past Weather in Reykjavik — Graph


Reykjavik Temperature Yesterday

Maximum temperature yesterday: 41 °F (at 12:00 AM)
Minimum temperature yesterday: 34 °F (at 8:00 PM)
Average temperature yesterday: 38 °F

High & Low Weather Summary for the Past Weeks

High54 °F (Oct 12, 9:00 PM)93% (Oct 17, 10:00 PM)30.24 "Hg (Oct 17, 10:00 PM)
Low34 °F (Oct 24, 8:00 PM)62% (Oct 16, 5:00 PM)28.94 "Hg (Oct 25, 2:00 PM)
Average47 °F79%29.78 "Hg
* Reported Oct 10 2:00 PM — Oct 25 2:00 PM, Reykjavik, Weather by CustomWeather, © 2016

Note: Actual official high and low records may vary slightly from our data, if they occured in-between our weather recording intervals... More about our weather records


Reykjavik Weather History for the Previous 24 Hours

Scroll right to see more
Time TempWeatherWind HumidityBarometerVisibility
2:00 PM
Tue, Oct 25
43 °FDrizzle. Broken clouds.23 mph81%28.94 "HgN/A
1:00 PM39 °FDrizzle. Broken clouds.28 mph81%28.97 "HgN/A
12:00 PM37 °FLight rain. Cloudy.24 mph81%29.09 "HgN/A
11:00 AM36 °FLight rain. Mostly cloudy.24 mph87%29.15 "Hg6 mi
10:00 AM36 °FRain. Mostly cloudy.23 mph87%29.24 "Hg3 mi
9:00 AM34 °FSnow. Mostly cloudy.24 mph87%29.30 "Hg2 mi
8:00 AM36 °FLight rain. Passing clouds.21 mph75%29.36 "HgN/A
7:00 AM36 °FPartly cloudy.16 mph81%29.45 "HgN/A
6:00 AM36 °FPartly cloudy.12 mph81%29.47 "HgN/A
5:00 AM36 °FPartly cloudy.10 mph81%29.50 "HgN/A
4:00 AM36 °FOvercast.12 mph81%29.56 "HgN/A
3:00 AM34 °FPartly cloudy.12 mph87%29.59 "HgN/A
2:00 AM34 °FPartly cloudy.10 mph81%29.62 "HgN/A
1:00 AM34 °FPartly cloudy.12 mph81%29.65 "HgN/A
12:00 AM34 °FPassing clouds.9 mph81%29.65 "HgN/A
11:00 PM
Mon, Oct 24
34 °FPassing clouds.6 mph81%29.65 "HgN/A
10:00 PM34 °FPartly cloudy.3 mph81%29.68 "HgN/A
9:00 PM34 °FPassing clouds.5 mph81%29.65 "HgN/A
8:00 PM34 °FPassing clouds.7 mph81%29.65 "HgN/A
7:00 PM36 °FScattered showers. Passing clouds.6 mph75%29.65 "HgN/A
6:00 PM36 °FScattered showers. Passing clouds.7 mph75%29.65 "HgN/A
5:00 PM39 °FScattered showers. Scattered clouds.10 mph70%29.62 "HgN/A
4:00 PM41 °FScattered showers. Scattered clouds.5 mph70%29.62 "HgN/A
3:00 PM41 °FScattered showers. Partly sunny.6 mph70%29.62 "HgN/A
Weather by CustomWeather, © 2016

See weather overviewHow to use our weather pages